User: anonymous   Login
Location: Unspecified
(0.0000°N, 0.0000°E)
Time: 23:50:00
(UTC+00:00)
Language:

STARLINK-34826 - Orbit

View from above orbital plane
View from above orbital plane
View from above satellite
View from above satellite

Ground track
Ground track

The orbit is defined by the following mean orbital elements,

1 65360U          26145.46269264 +.00000000 +00000-0 +44972-3 0 00009
2 65360  53.1590 171.2855 0001016  60.2133 299.8971 15.34410316    00
Epoch (UTC): 25 May 2026 11:06:16
Eccentricity: 0.0001016
inclination: 53.1590°
perigee height: 462 km
apogee height: 463 km
right ascension of ascending node: 171.2855°
argument of perigee: 60.2133°
revolutions per day: 15.34410316
mean anomaly at epoch: 299.8971°

The dashed part of the orbit path shows where the satellite is in the earth's shadow,  

DLR